Temp
17 17 17 17 17 17 17 17 17 17 17 17 17 17 17 17 17 16 16 16 15 15 16 16 16 16 15 15 15 15 16 15 15 14 15 15 16 16 16 16 16 16 15
17 17 16 17 17 17 17 17 17 17 17 17 17 17 17 17 16 16 16 15 15 15 15 15 15 16 15 15 15 15 15 15 15 15 15 16 16 16 16 15 15 15 15
17 17 16 17 16 16 16 16 16 16 17 17 16 17 17 17 17 15 16 15 15 15 15 16 15 16 15 15 15 15 15 15 15 15 15 16 16 16 16 15 15 15 15
17 17 17 16 17 16 16 16 16 16 16 16 16 16 16 16 16 17 16 16 15 15 15 15 15 15 15 15 15 15 15 15 14 15 15 16 16 15 15 15 15 15 15
16 16 17 16 16 16 16 16 16 16 16 16 16 16 16 16 16 16 16 15 15 15 15 15 15 15 15 15 15 15 15 15 15 15 15 15 15 15 15 15 15 15 14
16 17 16 16 16 16 16 16 16 16 16 16 16 16 16 16 16 16 16 16 15 15 15 15 15 15 15 15 15 15 15 15 15 15 15 15 15 15 15 15 15 15 14
16 17 16 16 16 16 16 16 16 16 16 16 16 16 16 16 16 16 16 16 16 16 16 16 16 15 15 15 14 15 15 15 15 15 15 15 15 15 15 15 15 14 14
15 16 16 16 16 15 15 16 16 16 16 16 16 16 16 16 16 15 15 16 15 15 16 16 16 16 15 15 14 14 14 14 14 15 15 15 15 15 15 15 14 14 14
15 15 15 16 15 16 15 15 15 15 15 15 15 15 16 16 16 15 15 15 15 15 15 16 16 16 15 15 15 15 15 14 14 14 14 14 14 14 14 14 14 14 14
15 15 15 15 15 15 15 15 15 15 15 15 15 15 15 15 16 16 15 15 15 15 15 15 16 16 16 15 15 15 15 15 15 14 14 14 14 14 14 14 14 14 14
15 15 15 14 15 15 15 15 15 15 15 15 15 15 15 15 15 15 16 15 15 15 15 15 15 16 16 16 15 15 15 15 15 15 15 14 14 14 13 13 14 14 13
15 15 15 16 15 15 15 15 15 15 15 15 15 15 15 15 15 15 15 15 15 15 15 15 15 15 15 16 16 15 15 15 15 15 15 14 14 14 13 13 13 13 13
15 15 15 15 15 15 15 15 15 15 15 15 15 15 15 15 15 15 15 15 15 15 15 15 15 14 15 15 15 15 15 15 15 15 15 14 14 14 13 13 13 13 13
14 14 14 14 14 14 15 15 15 14 14 15 15 14 14 14 14 14 15 15 15 15 15 15 15 15 14 14 15 15 15 15 15 15 15 14 14 14 13 13 13 13 13
14 14 14 14 14 14 14 14 14 14 15 14 14 14 14 14 14 14 14 14 15 15 15 15 14 14 14 14 14 15 15 15 15 15 15 14 14 14 14 13 13 13 13
14 14 14 14 14 13 13 14 14 14 14 14 14 14 14 14 14 14 14 14 14 14 14 14 14 14 14 14 14 14 14 15 15 15 15 14 14 14 14 13 13 13 13
13 13 13 13 13 13 13 13 13 13 13 13 14 14 14 14 13 14 13 14 14 14 14 14 14 14 14 14 14 14 14 14 14 15 15 14 14 14 14 14 14 13 14
11 12 12 12 12 12 12 12 12 12 12 12 13 13 13 13 13 13 14 13 14 14 13 13 13 14 14 14 14 14 14 14 14 14 14 15 14 14 14 14 13 13 14
11 12 12 12 12 12 13 12 12 12 11 11 11 12 12 12 12 12 13 13 13 13 13 13 13 13 14 14 14 14 14 14 14 14 14 14 14 14 13 13 13 14 14
11 11 11 11 11 11 11 11 11 11 12 11 11 11 11 11 12 11 12 13 13 13 13 13 13 13 13 14 14 14 14 14 14 13 14 13 13 13 13 13 13 13 13
10 10 10 10 9 9 9 9 10 11 11 11 11 11 10 10 11 11 11 11 12 13 13 12 12 12 13 13 13 13 13 14 14 14 14 13 13 13 13 13 13 13 13
8 9 8 8 8 8 8 8 9 9 10 10 10 10 10 10 10 10 10 10 11 11 11 11 12 12 13 13 13 12 12 12 14 15 14 14 13 13 14 13 14 13 13
8 8 8 8 8 8 8 7 8 9 9 8 8 8 9 9 10 10 10 10 10 10 11 11 11 12 12 12 13 12 11 12 13 14 15 14 14 14 13 13 13 13 13
8 8 7 7 7 7 6 5 6 7 8 8 8 8 8 9 9 9 9 9 10 10 10 11 12 12 12 11 12 12 12 12 13 13 14 14 14 13 13 13 13 13 13
8 8 7 7 7 7 6 6 6 7 7 8 8 8 8 8 8 9 9 9 9 9 10 10 11 12 12 12 11 12 12 12 12 12 12 13 13 13 13 12 12 13 12
8 8 7 6 6 6 6 6 5 6 7 8 8 8 8 8 8 8 8 8 9 9 9 10 10 11 12 12 11 11 11 11 12 12 11 12 12 12 11 11 11 11 11
Height
1537 1537 1537 1538 1539 1540 1540 1542 1542 1543 1543 1543 1543 1543 1543 1542 1542 1543 1543 1543 1544 1544 1544 1544 1544 1544 1545 1545 1545 1545 1545 1546 1546 1546 1547 1547 1546 1546 1545 1545 1544 1544 1544
1536 1537 1538 1538 1540 1540 1541 1542 1542 1544 1544 1544 1544 1544 1543 1543 1543 1544 1544 1545 1545 1545 1546 1546 1545 1545 1546 1546 1546 1546 1547 1547 1548 1548 1548 1548 1547 1547 1546 1546 1545 1544 1544
1536 1538 1539 1539 1541 1541 1542 1542 1543 1544 1544 1544 1544 1544 1544 1544 1544 1545 1545 1546 1546 1546 1547 1546 1547 1546 1546 1546 1547 1547 1548 1548 1549 1549 1549 1549 1548 1548 1547 1547 1546 1546 1545
1537 1538 1539 1540 1540 1541 1542 1542 1543 1543 1543 1544 1544 1544 1544 1544 1545 1545 1545 1546 1547 1547 1547 1547 1547 1547 1547 1547 1547 1548 1548 1549 1549 1549 1549 1549 1548 1548 1548 1548 1547 1547 1547
1537 1538 1539 1539 1540 1541 1541 1541 1542 1543 1544 1544 1544 1544 1544 1544 1545 1545 1545 1546 1547 1547 1547 1547 1547 1547 1547 1547 1548 1549 1549 1550 1549 1549 1550 1549 1549 1549 1549 1548 1548 1548 1547
1537 1538 1538 1539 1540 1540 1541 1541 1542 1543 1544 1544 1544 1544 1544 1544 1544 1545 1545 1546 1546 1546 1546 1546 1546 1546 1547 1548 1548 1549 1549 1550 1550 1550 1550 1550 1550 1550 1549 1549 1549 1549 1548
1537 1538 1538 1539 1539 1540 1540 1541 1541 1542 1543 1543 1544 1544 1544 1544 1544 1544 1544 1545 1545 1546 1546 1546 1546 1546 1547 1547 1548 1549 1549 1550 1550 1549 1549 1549 1549 1550 1549 1549 1549 1549 1549
1537 1538 1538 1538 1539 1539 1540 1540 1540 1541 1542 1542 1543 1543 1543 1544 1544 1544 1544 1544 1545 1545 1545 1545 1546 1546 1546 1547 1547 1548 1549 1549 1549 1549 1549 1549 1549 1549 1549 1549 1549 1549 1549
1537 1538 1538 1538 1538 1538 1539 1539 1539 1540 1540 1540 1541 1542 1542 1542 1543 1543 1543 1543 1543 1544 1544 1545 1545 1545 1545 1546 1546 1547 1547 1548 1549 1549 1549 1549 1549 1549 1549 1548 1548 1548 1548
1536 1537 1537 1537 1538 1537 1537 1538 1537 1538 1538 1538 1538 1539 1540 1540 1541 1541 1541 1541 1541 1542 1543 1543 1543 1544 1544 1544 1544 1545 1545 1546 1546 1547 1548 1548 1548 1548 1548 1548 1548 1548 1548
1536 1536 1536 1536 1536 1537 1536 1536 1536 1536 1536 1536 1537 1537 1538 1538 1538 1538 1539 1539 1538 1539 1540 1540 1541 1541 1542 1542 1542 1542 1543 1543 1544 1545 1546 1546 1547 1547 1547 1547 1547 1547 1547
1534 1534 1534 1533 1533 1533 1534 1534 1534 1534 1534 1534 1534 1534 1534 1535 1535 1535 1535 1535 1535 1536 1536 1537 1538 1538 1539 1539 1540 1540 1540 1541 1541 1542 1543 1544 1544 1545 1545 1545 1545 1545 1545
1531 1531 1530 1529 1529 1529 1530 1530 1530 1531 1531 1531 1531 1531 1531 1531 1531 1531 1531 1532 1532 1532 1532 1533 1533 1534 1535 1536 1537 1537 1537 1538 1538 1539 1540 1541 1542 1542 1543 1543 1543 1543 1543
1528 1527 1526 1526 1525 1525 1524 1525 1525 1525 1526 1526 1526 1526 1527 1526 1526 1527 1527 1527 1528 1528 1528 1529 1529 1530 1531 1532 1533 1533 1534 1534 1535 1536 1537 1538 1539 1539 1540 1540 1541 1541 1541
1525 1525 1524 1523 1522 1522 1521 1521 1520 1520 1520 1520 1520 1521 1521 1521 1521 1521 1522 1522 1522 1524 1524 1524 1525 1525 1526 1526 1528 1529 1529 1530 1531 1532 1533 1534 1535 1536 1536 1537 1537 1537 1537
1522 1522 1521 1520 1519 1518 1517 1517 1516 1515 1515 1514 1514 1515 1515 1515 1515 1515 1515 1516 1516 1517 1518 1519 1520 1521 1521 1522 1523 1524 1525 1525 1526 1527 1528 1529 1530 1531 1532 1533 1533 1534 1534
1520 1519 1518 1517 1516 1514 1513 1511 1510 1509 1509 1508 1508 1509 1509 1509 1509 1509 1508 1509 1510 1511 1513 1513 1514 1516 1516 1516 1517 1518 1519 1520 1520 1521 1522 1523 1525 1526 1527 1528 1529 1529 1530
1517 1516 1514 1512 1511 1509 1507 1505 1504 1502 1501 1500 1500 1500 1501 1501 1501 1502 1502 1502 1504 1504 1506 1507 1509 1509 1511 1511 1511 1511 1512 1513 1514 1515 1516 1517 1519 1520 1522 1522 1523 1524 1525
1512 1510 1509 1506 1503 1500 1498 1496 1494 1493 1492 1492 1492 1491 1491 1492 1493 1493 1494 1496 1498 1498 1498 1500 1501 1502 1504 1504 1504 1504 1505 1506 1507 1508 1510 1511 1512 1514 1516 1517 1517 1518 1518
1508 1505 1502 1498 1495 1492 1489 1487 1485 1483 1483 1483 1483 1482 1482 1483 1484 1485 1485 1487 1490 1491 1491 1493 1494 1495 1496 1497 1498 1498 1499 1500 1501 1501 1503 1505 1507 1508 1508 1510 1512 1513 1513
1504 1500 1496 1492 1489 1485 1482 1479 1476 1474 1474 1473 1473 1473 1474 1475 1476 1477 1478 1479 1482 1482 1484 1485 1487 1489 1489 1491 1493 1492 1492 1493 1493 1494 1497 1498 1500 1502 1504 1505 1507 1508 1507
1499 1495 1492 1488 1485 1482 1478 1474 1471 1468 1466 1463 1463 1464 1466 1468 1470 1471 1471 1472 1473 1474 1475 1478 1480 1481 1482 1484 1486 1488 1486 1486 1486 1487 1488 1490 1492 1495 1496 1496 1500 1502 1500
1496 1491 1487 1485 1482 1478 1474 1471 1468 1465 1463 1459 1458 1458 1461 1462 1463 1464 1465 1466 1467 1467 1467 1470 1472 1474 1474 1476 1479 1483 1481 1480 1480 1480 1480 1483 1486 1489 1491 1493 1494 1494 1492
1492 1488 1483 1480 1477 1475 1471 1468 1466 1463 1459 1458 1457 1457 1457 1457 1457 1457 1459 1460 1460 1461 1461 1462 1465 1467 1470 1471 1472 1473 1475 1476 1477 1477 1477 1478 1479 1482 1485 1486 1487 1486 1485
1489 1485 1480 1477 1473 1471 1469 1466 1464 1461 1457 1456 1455 1453 1453 1454 1453 1453 1454 1454 1454 1455 1455 1456 1458 1460 1462 1465 1466 1467 1469 1470 1471 1473 1473 1474 1474 1476 1478 1479 1479 1479 1479
1488 1484 1479 1474 1470 1467 1465 1463 1461 1458 1455 1453 1452 1451 1450 1449 1449 1450 1450 1450 1449 1450 1450 1451 1451 1453 1454 1458 1460 1461 1462 1464 1465 1466 1467 1470 1469 1469 1471 1472 1473 1473 1473
Wind_Speed
5 4 5 6 6 7 7 6 5 3 3 3 2 2 2 3 5 7 8 9 9 5 7 9 8 9 9 8 9 8 8 9 11 11 8 7 8 9 9 9 8 7 6
5 4 3 5 6 7 6 5 4 3 2 3 3 3 2 3 5 6 7 7 5 5 6 6 7 7 8 7 7 7 8 8 7 5 5 6 7 7 7 8 7 7 7
5 4 3 6 7 6 6 6 5 3 2 2 2 3 1 2 3 5 6 6 5 5 3 3 5 5 6 6 6 7 8 7 5 4 5 6 7 7 8 8 7 7 7
4 4 4 3 7 7 6 6 6 4 3 2 1 1 1 1 2 4 5 7 5 4 3 2 1 4 6 7 7 7 7 6 4 4 4 5 6 6 6 6 7 7 7
5 4 3 5 6 8 8 7 7 6 6 4 3 2 2 1 2 4 6 7 6 6 6 5 3 6 7 8 9 8 6 3 2 3 2 4 4 4 4 5 5 5 5
3 5 6 6 5 8 8 8 7 7 7 6 5 5 3 3 3 4 7 9 8 8 7 4 3 6 8 9 9 8 6 4 2 2 1 2 3 3 4 4 4 4 4
4 3 5 5 4 6 8 8 8 8 8 7 7 6 5 4 4 5 6 8 7 6 5 5 5 7 9 10 10 9 7 5 3 2 2 0 1 1 2 3 3 3 3
3 2 4 6 7 7 8 9 10 10 9 9 9 8 7 7 6 6 7 9 8 6 5 5 6 8 9 11 11 10 9 7 5 4 3 2 1 1 2 3 3 3 2
3 2 4 6 8 9 9 11 12 11 11 11 11 11 10 10 9 9 10 11 12 11 9 7 8 10 10 11 12 13 12 10 9 7 6 4 3 2 3 3 3 3 3
3 5 6 8 9 10 10 11 12 13 13 14 13 13 13 13 12 12 13 13 14 15 14 11 10 12 12 13 13 14 15 14 12 10 8 7 5 4 4 4 4 4 4
3 5 7 10 11 13 14 14 13 13 15 15 16 16 16 16 16 16 16 16 16 16 17 16 15 14 15 15 16 16 16 16 15 13 10 9 9 7 5 6 6 6 6
9 9 11 12 14 16 17 17 17 17 17 17 17 18 20 20 19 19 19 19 19 19 18 19 19 17 17 18 17 17 17 17 16 16 13 11 10 9 8 8 7 8 9
12 10 10 11 14 17 19 21 21 21 22 22 20 20 21 23 23 23 23 22 22 22 22 22 22 24 21 20 20 19 19 19 18 17 16 14 12 11 10 10 9 9 10
9 10 10 11 11 12 17 20 23 24 25 25 26 26 25 27 27 26 27 26 25 25 26 25 25 25 25 22 21 22 22 21 20 20 19 18 16 14 13 12 11 11 10
14 14 15 16 16 16 16 17 19 22 25 27 29 29 30 30 31 31 28 28 28 27 28 28 28 27 27 27 24 23 24 24 23 22 22 21 20 18 16 15 14 14 13
15 16 17 17 19 20 21 21 22 23 24 26 28 30 32 34 34 33 32 30 28 29 30 31 31 29 27 27 27 26 24 24 25 26 24 22 22 21 19 18 18 17 16
14 16 18 19 20 23 25 27 28 28 29 29 29 29 32 34 36 36 35 34 33 30 29 31 31 31 30 28 26 27 27 27 27 27 28 27 24 23 22 21 20 20 19
17 20 22 25 28 30 32 33 34 34 33 33 32 32 32 32 35 37 39 36 35 35 32 33 33 34 34 35 31 28 28 29 29 28 28 29 27 25 23 22 22 23 23
22 26 29 31 33 34 35 37 37 37 36 35 34 33 32 34 33 36 39 39 37 37 35 32 34 38 35 36 36 31 27 27 28 28 28 26 27 26 25 22 20 21 23
25 28 31 33 33 34 35 35 36 38 40 39 38 36 33 33 34 33 36 40 37 37 36 33 32 32 34 33 34 33 31 27 30 30 30 29 28 27 23 22 23 25 24
23 26 25 26 24 25 26 29 31 34 34 35 35 35 32 30 31 30 31 33 38 38 37 32 33 32 32 31 32 33 33 32 31 33 33 32 29 25 24 27 29 28 25
22 23 21 21 19 21 21 24 26 27 30 32 31 29 28 25 26 28 28 29 31 34 34 33 30 32 33 32 31 28 25 27 31 30 31 33 30 23 22 19 29 30 28
19 21 19 18 18 18 19 20 22 22 23 21 16 14 16 19 21 23 24 25 25 27 33 35 31 29 32 31 30 26 9 13 21 23 23 25 23 25 25 28 27 26 26
19 21 20 19 19 18 19 18 20 20 20 17 15 14 14 16 17 20 22 22 22 21 24 28 32 29 30 30 31 33 31 29 12 7 12 16 18 21 21 22 24 23 22
18 20 19 17 17 17 18 15 16 17 16 16 15 15 15 14 14 16 18 20 20 21 21 21 27 28 28 28 28 30 30 30 33 27 21 22 22 22 24 21 22 22 20
16 18 20 20 16 14 14 15 13 14 15 15 14 15 15 16 15 15 16 17 18 17 20 21 19 27 29 28 24 25 26 23 27 29 31 31 29 24 21 23 22 22 21
Wind_Direction
125 173 189 195 180 180 176 174 170 153 139 126 91 63 66 96 109 103 109 113 113 107 86 83 97 122 130 117 131 124 114 101 115 112 75 59 55 56 56 59 63 74 87
150 140 203 221 201 197 187 188 180 161 141 112 69 64 81 124 127 120 125 127 115 143 130 120 100 113 137 123 125 122 120 126 122 97 69 55 55 56 59 61 66 72 82
175 162 220 224 223 210 204 208 203 188 186 139 63 38 76 143 165 157 156 146 144 150 151 82 133 141 153 159 153 142 138 129 114 94 70 56 48 45 45 49 58 65 71
177 183 214 264 223 223 219 222 215 211 207 226 271 16 49 165 201 191 173 170 174 215 250 314 201 187 179 181 182 169 163 147 125 99 77 75 66 59 57 57 59 63 68
163 176 218 280 233 230 227 227 224 222 213 224 245 263 312 242 224 212 192 176 197 240 267 291 252 205 194 191 188 176 178 190 217 204 78 61 62 52 49 58 63 65 65
153 179 207 247 245 224 235 233 233 233 233 244 241 244 277 276 245 232 220 209 214 239 260 263 234 195 193 195 197 193 203 200 201 196 271 35 51 36 31 38 47 52 54
123 188 244 265 263 247 237 241 240 241 242 247 248 254 268 275 259 246 232 215 229 248 246 244 218 200 198 203 211 213 218 226 229 254 247 273 73 24 16 24 33 40 45
105 187 226 254 275 264 258 244 241 244 249 251 253 256 266 269 260 259 240 231 244 254 260 246 223 211 210 217 225 231 234 242 252 267 255 260 272 306 338 354 3 5 9
190 223 255 268 266 266 271 262 247 243 246 250 254 258 264 263 257 252 252 249 249 253 259 255 233 223 220 223 231 238 244 252 259 264 257 257 257 285 305 320 328 332 332
226 239 229 257 265 265 275 277 259 255 254 255 255 258 261 260 259 257 256 258 257 254 253 255 247 234 229 229 232 239 245 250 255 259 259 259 262 273 291 300 306 308 312
290 285 267 256 250 260 265 266 274 271 264 261 262 262 261 261 261 261 262 259 258 257 253 251 250 245 237 234 233 237 243 249 249 250 255 258 260 267 283 298 300 299 298
302 298 289 274 261 255 256 261 266 267 271 271 269 269 268 264 261 261 260 260 259 256 254 252 248 249 245 239 237 237 243 247 250 249 249 249 254 260 270 283 299 299 295
305 307 301 284 268 261 255 255 255 259 263 265 267 267 266 268 267 262 260 258 258 258 255 252 247 245 247 246 242 242 243 246 249 250 249 249 254 259 267 271 287 299 296
284 285 285 283 277 269 263 259 256 256 254 257 260 258 263 266 265 265 263 259 258 258 259 256 254 252 248 250 250 246 245 246 249 251 251 252 255 259 261 268 272 286 293
289 287 286 284 282 281 279 273 270 266 262 258 255 256 262 260 262 266 266 264 257 258 259 259 257 254 251 247 250 251 249 249 249 252 252 252 254 259 261 262 269 276 285
290 288 286 283 284 287 286 285 281 276 272 268 262 257 254 260 262 260 263 262 260 256 258 258 256 256 255 252 253 254 254 253 251 251 252 253 254 253 259 262 264 268 275
296 294 290 288 287 288 288 289 287 285 281 275 270 266 261 257 256 263 263 260 258 254 257 260 256 254 252 249 250 253 253 253 252 252 251 251 251 250 255 261 265 268 272
298 295 294 293 294 292 289 287 286 285 283 280 275 269 263 261 258 253 260 262 261 262 262 261 259 255 256 255 252 255 258 257 258 256 251 249 247 249 253 261 267 269 271
301 299 296 294 292 290 288 285 282 280 279 279 278 277 271 264 260 257 252 258 263 266 263 265 263 259 264 261 257 257 259 256 256 255 250 246 245 247 253 262 268 270 270
300 298 297 295 294 293 292 291 289 285 282 279 279 278 275 269 260 257 258 253 257 261 266 263 260 262 265 268 265 262 265 262 258 254 251 249 247 249 251 266 270 271 270
305 307 305 305 302 301 302 302 298 297 291 283 276 273 273 272 266 258 260 262 255 256 258 264 264 267 269 268 268 268 273 266 259 257 255 249 245 245 256 261 267 270 273
321 321 312 316 315 313 312 317 317 316 312 304 292 281 269 272 270 261 260 265 263 259 259 261 260 262 263 262 260 269 266 275 269 261 256 252 247 242 247 249 262 270 273
330 333 317 315 314 324 318 321 322 319 322 330 328 307 284 279 275 259 261 271 273 266 259 259 260 258 261 265 261 256 247 250 270 267 255 252 252 246 254 260 262 268 273
338 337 328 315 312 315 322 319 323 323 325 333 326 314 298 285 276 257 260 271 265 267 271 265 257 258 259 262 266 265 259 253 242 252 246 243 242 242 243 251 266 275 277
348 346 339 329 318 310 314 315 315 319 314 314 317 308 305 297 282 276 272 265 264 264 266 271 264 256 255 264 269 270 269 260 250 246 256 253 249 247 255 274 283 290 292
335 348 356 351 340 329 321 325 310 322 325 317 312 304 298 289 285 291 282 273 268 270 270 270 270 256 250 257 267 268 265 259 255 249 254 255 262 264 277 286 292 295 291